Location: La Vergne
(36.0160°N, 86.5820°W)
Time: 21:16:37
(UTC-05:00)

Cosmos 304 Rocket - Pass Details

Date: 24 September 2017
Orbit: 679 x 689 km, 74.0° (Epoch: 23 October)

Event Time Altitude Azimuth Distance (km) Brightness Sun altitude
Rises 19:35:36 0° 202° (SSW) 3,022 7.3 -12.1°
Reaches altitude 10° 19:37:54 10° 205° (SSW) 2,112 6.5 -12.6°
Maximum altitude 19:42:38 68° 288° (WNW) 733 4.1 -13.5°
Drops below altitude 10° 19:47:25 10° 12° (NNE) 2,132 6.3 -14.5°
Sets 19:49:45 0° 15° (NNE) 3,053 7.1 -14.9°
